Time,TemperatureF,DewpointF,PressureIn,WindDirection,WindDirectionDegrees,WindSpeedMPH,WindSpeedGustMPH,Humidity,HourlyPrecipIn,Conditions,Clouds,dailyrainin,SoftwareType,DateUTC
2013-03-02 00:02:00,30.8,21.0,30.38,WNW,303,6.0,21.0,68,0.00,,,0.00,weatherlink.com 1.10,2013-03-02 07:02:00,
2013-03-02 00:17:00,30.8,21.0,30.38,WSW,253,6.0,25.0,68,0.00,,,0.00,weatherlink.com 1.10,2013-03-02 07:17:00,
2013-03-02 00:32:00,30.6,21.0,30.38,West,274,7.0,25.0,68,0.00,,,0.00,weatherlink.com 1.10,2013-03-02 07:32:00,
2013-03-02 00:48:00,30.5,21.0,30.38,SSW,203,3.0,17.0,69,0.00,,,0.00,weatherlink.com 1.10,2013-03-02 07:48:00,
2013-03-02 01:03:00,30.4,21.0,30.37,WNW,282,4.0,16.0,69,0.00,,,0.00,weatherlink.com 1.10,2013-03-02 08:03:00,
2013-03-02 01:18:00,30.5,21.0,30.37,West,268,15.0,19.0,69,0.00,,,0.00,weatherlink.com 1.10,2013-03-02 08:18:00,
2013-03-02 01:33:00,30.5,21.0,30.37,NW,309,5.0,25.0,68,0.00,,,0.00,weatherlink.com 1.10,2013-03-02 08:33:00,
2013-03-02 01:48:00,30.5,21.0,30.37,West,280,2.0,16.0,68,0.00,,,0.00,weatherlink.com 1.10,2013-03-02 08:48:00,
2013-03-02 02:03:00,30.3,21.0,30.36,West,266,6.0,16.0,68,0.00,,,0.00,weatherlink.com 1.10,2013-03-02 09:03:00,
2013-03-02 02:18:00,30.3,21.0,30.36,WSW,256,12.0,15.0,69,0.00,,,0.00,weatherlink.com 1.10,2013-03-02 09:18:00,
2013-03-02 02:33:00,30.4,21.0,30.36,SW,215,7.0,16.0,68,0.00,,,0.00,weatherlink.com 1.10,2013-03-02 09:33:00,
2013-03-02 02:48:00,30.5,21.0,30.36,NW,319,5.0,23.0,68,0.00,,,0.00,weatherlink.com 1.10,2013-03-02 09:48:00,
2013-03-02 03:03:00,30.4,21.0,30.35,WNW,300,4.0,14.0,68,0.00,,,0.00,weatherlink.com 1.10,2013-03-02 10:03:00,
2013-03-02 03:18:00,30.2,21.0,30.35,West,271,1.0,18.0,69,0.00,,,0.00,weatherlink.com 1.10,2013-03-02 10:18:00,
2013-03-02 03:33:00,30.3,21.0,30.36,NW,307,5.0,20.0,69,0.00,,,0.00,weatherlink.com 1.10,2013-03-02 10:33:00,
2013-03-02 03:48:00,30.3,21.0,30.36,WNW,300,9.0,15.0,68,0.00,,,0.00,weatherlink.com 1.10,2013-03-02 10:48:00,
2013-03-02 04:03:00,30.4,21.0,30.36,WNW,295,5.0,16.0,68,0.00,,,0.00,weatherlink.com 1.10,2013-03-02 11:03:00,
2013-03-02 04:18:00,30.4,21.0,30.36,WSW,239,7.0,15.0,68,0.00,,,0.00,weatherlink.com 1.10,2013-03-02 11:18:00,
2013-03-02 04:33:00,30.4,21.0,30.36,East,96,5.0,14.0,67,0.00,,,0.00,weatherlink.com 1.10,2013-03-02 11:33:00,
2013-03-02 04:48:00,30.5,20.0,30.36,West,265,9.0,21.0,66,0.00,,,0.00,weatherlink.com 1.10,2013-03-02 11:48:00,
2013-03-02 05:03:00,30.8,20.0,30.35,WNW,290,4.0,16.0,64,0.00,,,0.00,weatherlink.com 1.10,2013-03-02 12:03:00,
2013-03-02 05:18:00,31.1,20.0,30.35,NNE,22,4.0,12.0,63,0.00,,,0.00,weatherlink.com 1.10,2013-03-02 12:18:00,
2013-03-02 05:33:00,31.2,19.0,30.35,West,274,3.0,10.0,62,0.00,,,0.00,weatherlink.com 1.10,2013-03-02 12:33:00,
2013-03-02 05:48:00,30.9,20.0,30.36,ESE,123,2.0,18.0,63,0.00,,,0.00,weatherlink.com 1.10,2013-03-02 12:48:00,
2013-03-02 06:03:00,30.5,20.0,30.37,SSE,148,2.0,5.0,65,0.00,,,0.00,weatherlink.com 1.10,2013-03-02 13:03:00,
2013-03-02 06:18:00,30.2,20.0,30.38,ESE,107,1.0,8.0,67,0.00,,,0.00,weatherlink.com 1.10,2013-03-02 13:18:00,
2013-03-02 06:33:00,29.5,20.0,30.37,ENE,63,4.0,9.0,69,0.00,,,0.00,weatherlink.com 1.10,2013-03-02 13:33:00,
2013-03-02 06:48:00,29.9,20.0,30.37,ESE,117,3.0,14.0,66,0.00,,,0.00,weatherlink.com 1.10,2013-03-02 13:48:00,
2013-03-02 07:03:00,31.4,20.0,30.37,WNW,302,5.0,12.0,63,0.00,,,0.00,weatherlink.com 1.10,2013-03-02 14:03:00,
2013-03-02 07:18:00,31.9,20.0,30.36,SW,218,2.0,14.0,61,0.00,,,0.00,weatherlink.com 1.10,2013-03-02 14:18:00,
2013-03-02 07:33:00,33.1,20.0,30.36,SW,224,10.0,19.0,59,0.00,,,0.00,weatherlink.com 1.10,2013-03-02 14:33:00,
2013-03-02 07:48:00,33.1,20.0,30.37,South,172,1.0,14.0,59,0.00,,,0.00,weatherlink.com 1.10,2013-03-02 14:48:00,
2013-03-02 08:04:00,33.9,20.0,30.37,West,281,5.0,23.0,58,0.00,,,0.00,weatherlink.com 1.10,2013-03-02 15:04:00,
2013-03-02 08:19:00,34.1,21.0,30.37,West,274,7.0,12.0,58,0.00,,,0.00,weatherlink.com 1.10,2013-03-02 15:19:00,
2013-03-02 08:34:00,34.0,20.0,30.35,WNW,301,9.0,15.0,56,0.00,,,0.00,weatherlink.com 1.10,2013-03-02 15:34:00,
2013-03-02 08:49:00,34.2,20.0,30.35,WNW,290,5.0,23.0,56,0.00,,,0.00,weatherlink.com 1.10,2013-03-02 15:49:00,
2013-03-02 09:04:00,34.7,20.0,30.34,NW,306,5.0,19.0,56,0.00,,,0.00,weatherlink.com 1.10,2013-03-02 16:04:00,
2013-03-02 09:19:00,34.5,20.0,30.34,East,94,6.0,15.0,56,0.00,,,0.00,weatherlink.com 1.10,2013-03-02 16:19:00,
2013-03-02 09:34:00,34.1,20.0,30.34,SE,142,4.0,15.0,57,0.00,,,0.00,weatherlink.com 1.10,2013-03-02 16:34:00,
2013-03-02 09:49:00,34.3,20.0,30.33,NW,319,5.0,14.0,57,0.00,,,0.00,weatherlink.com 1.10,2013-03-02 16:49:00,
2013-03-02 10:04:00,34.7,20.0,30.33,NW,323,2.0,19.0,56,0.00,,,0.00,weatherlink.com 1.10,2013-03-02 17:04:00,
2013-03-02 10:19:00,35.8,21.0,30.33,SSE,152,5.0,12.0,55,0.00,,,0.00,weatherlink.com 1.10,2013-03-02 17:19:00,
2013-03-02 10:34:00,35.8,21.0,30.33,ENE,70,6.0,14.0,55,0.00,,,0.00,weatherlink.com 1.10,2013-03-02 17:34:00,
2013-03-02 10:49:00,36.9,21.0,30.32,WNW,301,3.0,11.0,52,0.00,,,0.00,weatherlink.com 1.10,2013-03-02 17:49:00,
2013-03-02 11:04:00,36.7,20.0,30.32,NNE,18,11.0,16.0,52,0.00,,,0.00,weatherlink.com 1.10,2013-03-02 18:04:00,
2013-03-02 11:19:00,36.5,21.0,30.30,East,101,4.0,19.0,53,0.00,,,0.00,weatherlink.com 1.10,2013-03-02 18:19:00,
2013-03-02 11:34:00,37.1,21.0,30.29,WNW,289,4.0,20.0,52,0.00,,,0.00,weatherlink.com 1.10,2013-03-02 18:34:00,
2013-03-02 11:49:00,37.6,21.0,30.28,West,278,8.0,21.0,52,0.00,,,0.00,weatherlink.com 1.10,2013-03-02 18:49:00,
2013-03-02 12:04:00,38.4,22.0,30.27,WNW,288,17.0,22.0,53,0.00,,,0.00,weatherlink.com 1.10,2013-03-02 19:04:00,
2013-03-02 12:19:00,39.4,22.0,30.26,West,270,11.0,28.0,50,0.00,,,0.00,weatherlink.com 1.10,2013-03-02 19:19:00,
2013-03-02 12:34:00,39.6,22.0,30.25,West,277,6.0,25.0,49,0.01,,,0.01,weatherlink.com 1.10,2013-03-02 19:34:00,
2013-03-02 12:49:00,39.6,22.0,30.24,West,269,13.0,23.0,50,0.01,,,0.01,weatherlink.com 1.10,2013-03-02 19:49:00,
2013-03-02 13:04:00,40.3,22.0,30.24,West,279,9.0,23.0,49,0.01,,,0.01,weatherlink.com 1.10,2013-03-02 20:04:00,
2013-03-02 13:19:00,40.2,23.0,30.23,West,277,12.0,26.0,50,0.02,,,0.02,weatherlink.com 1.10,2013-03-02 20:19:00,
2013-03-02 13:34:00,39.9,22.0,30.24,West,270,5.0,23.0,49,0.01,,,0.02,weatherlink.com 1.10,2013-03-02 20:34:00,
2013-03-02 13:49:00,40.1,23.0,30.23,WNW,297,6.0,19.0,50,0.01,,,0.02,weatherlink.com 1.10,2013-03-02 20:49:00,
2013-03-02 14:04:00,39.3,22.0,30.25,WNW,291,7.0,19.0,51,0.01,,,0.02,weatherlink.com 1.10,2013-03-02 21:04:00,
2013-03-02 14:19:00,39.2,22.0,30.25,West,274,4.0,16.0,50,0.00,,,0.02,weatherlink.com 1.10,2013-03-02 21:19:00,
2013-03-02 14:34:00,39.6,22.0,30.25,WNW,288,5.0,14.0,50,0.00,,,0.02,weatherlink.com 1.10,2013-03-02 21:34:00,
2013-03-02 14:49:00,40.8,22.0,30.25,WSW,244,4.0,25.0,48,0.00,,,0.02,weatherlink.com 1.10,2013-03-02 21:49:00,
2013-03-02 15:04:00,40.7,22.0,30.24,NW,308,1.0,17.0,47,0.00,,,0.02,weatherlink.com 1.10,2013-03-02 22:04:00,
2013-03-02 15:19:00,40.7,23.0,30.24,WSW,238,4.0,12.0,49,0.00,,,0.02,weatherlink.com 1.10,2013-03-02 22:19:00,
2013-03-02 15:34:00,40.5,23.0,30.25,WNW,290,2.0,15.0,51,0.00,,,0.02,weatherlink.com 1.10,2013-03-02 22:34:00,
2013-03-02 15:49:00,40.7,22.0,30.24,SSE,150,2.0,9.0,47,0.00,,,0.02,weatherlink.com 1.10,2013-03-02 22:49:00,
2013-03-02 16:04:00,40.9,21.0,30.24,SW,232,0.0,8.0,46,0.00,,,0.02,weatherlink.com 1.10,2013-03-02 23:04:00,
2013-03-02 16:19:00,40.9,22.0,30.25,ENE,75,3.0,7.0,47,0.00,,,0.02,weatherlink.com 1.10,2013-03-02 23:19:00,
2013-03-02 16:34:00,40.5,23.0,30.24,WSW,248,0.0,8.0,49,0.00,,,0.02,weatherlink.com 1.10,2013-03-02 23:34:00,
2013-03-02 16:49:00,40.1,22.0,30.23,WNW,301,2.0,5.0,48,0.00,,,0.02,weatherlink.com 1.10,2013-03-02 23:49:00,
2013-03-02 17:04:00,39.9,21.0,30.22,East,92,1.0,6.0,48,0.00,,,0.02,weatherlink.com 1.10,2013-03-03 00:04:00,
2013-03-02 17:20:00,39.6,22.0,30.21,SE,124,0.0,5.0,49,0.00,,,0.02,weatherlink.com 1.10,2013-03-03 00:20:00,
2013-03-02 17:35:00,39.3,22.0,30.20,NE,44,0.0,7.0,50,0.00,,,0.02,weatherlink.com 1.10,2013-03-03 00:35:00,
2013-03-02 17:50:00,39.1,21.0,30.19,ENE,75,4.0,6.0,49,0.00,,,0.02,weatherlink.com 1.10,2013-03-03 00:50:00,
2013-03-02 18:06:00,38.4,21.0,30.19,WNW,286,1.0,6.0,49,0.00,,,0.02,weatherlink.com 1.10,2013-03-03 01:06:00,
2013-03-02 18:20:00,38.0,20.0,30.18,ENE,67,0.0,4.0,49,0.00,,,0.02,weatherlink.com 1.10,2013-03-03 01:20:00,
2013-03-02 18:35:00,37.8,20.0,30.18,SE,142,0.0,3.0,49,0.00,,,0.02,weatherlink.com 1.10,2013-03-03 01:35:00,
2013-03-02 18:50:00,37.3,21.0,30.18,SSE,159,1.0,4.0,51,0.00,,,0.02,weatherlink.com 1.10,2013-03-03 01:50:00,
2013-03-02 19:05:00,36.9,21.0,30.18,SW,231,0.0,4.0,52,0.00,,,0.02,weatherlink.com 1.10,2013-03-03 02:05:00,
2013-03-02 19:20:00,36.6,21.0,30.17,ENE,68,4.0,7.0,53,0.00,,,0.02,weatherlink.com 1.10,2013-03-03 02:20:00,
2013-03-02 19:35:00,36.1,21.0,30.16,West,273,0.0,1.0,54,0.00,,,0.02,weatherlink.com 1.10,2013-03-03 02:35:00,
2013-03-02 19:50:00,36.4,22.0,30.15,ESE,120,0.0,9.0,56,0.00,,,0.02,weatherlink.com 1.10,2013-03-03 02:50:00,
2013-03-02 20:05:00,36.5,21.0,30.15,SW,233,0.0,1.0,53,0.00,,,0.02,weatherlink.com 1.10,2013-03-03 03:05:00,
2013-03-02 20:20:00,36.3,21.0,30.15,NE,56,2.0,3.0,55,0.00,,,0.02,weatherlink.com 1.10,2013-03-03 03:20:00,
2013-03-02 20:35:00,36.4,21.0,30.15,East,101,3.0,5.0,54,0.00,,,0.02,weatherlink.com 1.10,2013-03-03 03:35:00,
2013-03-02 20:50:00,36.3,21.0,30.14,East,84,0.0,5.0,54,0.00,,,0.02,weatherlink.com 1.10,2013-03-03 03:50:00,
2013-03-02 21:05:00,35.6,21.0,30.13,East,84,0.0,2.0,55,0.00,,,0.02,weatherlink.com 1.10,2013-03-03 04:05:00,
2013-03-02 21:20:00,36.1,20.0,30.13,NE,41,0.0,4.0,53,0.00,,,0.02,weatherlink.com 1.10,2013-03-03 04:20:00,
2013-03-02 21:35:00,35.7,19.0,30.11,WNW,287,0.0,5.0,52,0.00,,,0.02,weatherlink.com 1.10,2013-03-03 04:35:00,
2013-03-02 21:50:00,36.8,20.0,30.10,SSE,153,0.0,5.0,51,0.00,,,0.02,weatherlink.com 1.10,2013-03-03 04:50:00,
2013-03-02 22:05:00,37.1,19.0,30.09,NW,325,0.0,6.0,48,0.00,,,0.02,weatherlink.com 1.10,2013-03-03 05:05:00,
2013-03-02 22:20:00,37.5,20.0,30.09,WNW,293,1.0,7.0,50,0.00,,,0.02,weatherlink.com 1.10,2013-03-03 05:20:00,
2013-03-02 22:35:00,36.4,19.0,30.09,West,259,0.0,6.0,49,0.00,,,0.02,weatherlink.com 1.10,2013-03-03 05:35:00,
2013-03-02 22:50:00,37.5,17.0,30.09,SW,225,0.0,5.0,43,0.00,,,0.02,weatherlink.com 1.10,2013-03-03 05:50:00,
2013-03-02 23:05:00,36.9,17.0,30.09,East,87,1.0,1.0,45,0.00,,,0.02,weatherlink.com 1.10,2013-03-03 06:05:00,
2013-03-02 23:20:00,36.1,16.0,30.08,ESE,103,0.0,1.0,44,0.00,,,0.02,weatherlink.com 1.10,2013-03-03 06:20:00,
2013-03-02 23:35:00,35.5,16.0,30.07,West,278,0.0,1.0,46,0.00,,,0.02,weatherlink.com 1.10,2013-03-03 06:35:00,
2013-03-02 23:50:00,33.1,17.0,30.06,West,278,0.0,1.0,52,0.00,,,0.02,weatherlink.com 1.10,2013-03-03 06:50:00,